Location: Schommer Observatory
(40.5200°N, 74.4500°W)
Time: 11:23:33
(UTC-04:00)

ISS - Pass Details

Date: 24 May 2018
Orbit: 402 x 407 km, 51.6° (Epoch: 27 May)

Event Time Altitude Azimuth Distance (km) Brightness Sun altitude
Rises 21:25:28 0° 258° (WSW) 2,314 0.6 -11.7°
Reaches altitude 10° 21:27:42 10° 270° (W) 1,456 -0.3 -12.0°
Maximum altitude 21:30:37 29° 333° (NNW) 763 -1.7 -12.4°
Drops below altitude 10° 21:33:33 10° 37° (NE) 1,459 -0.9 -12.8°
Sets 21:35:48 0° 48° (NE) 2,320 0.0 -13.1°
